| time (UTC) | temp F | wind direction | speed knots | gust knots | rain 1hr in | rain 24hr in | rain mn in | humidity % | barometer mb |
| 20260901074319 | 67 | 172 | 0.0 | 0.0 | 0.11 | 0.22 | 0.22 | 96 | 1017.5 |
| 20260901073356 | 67 | 172 | 0.0 | 0.0 | 0.12 | 0.19 | 0.19 | 96 | 1017.6 |
| 20260901072325 | 67 | 172 | 0.0 | 0.0 | 0.14 | 0.17 | 0.17 | 96 | 1017.6 |
| 20260901071314 | 67 | 172 | 0.0 | 0.0 | 0.13 | 0.15 | 0.15 | 96 | 1017.6 |
| 20260901070323 | 67 | 172 | 0.0 | 0.0 | 0.12 | 0.14 | 0.14 | 96 | 1017.6 |
| 20260901065313 | 67 | 172 | 0.0 | 0.0 | 0.12 | 0.13 | 0.13 | 96 | 1017.8 |
| 20260901064322 | 67 | 172 | 0.0 | 0.0 | 0.11 | 0.11 | 0.11 | 96 | 1017.8 |
| 20260901063313 | 67 | 172 | 0.0 | 0.0 | 0.06 | 0.06 | 0.06 | 96 | 1017.9 |
| 20260901062350 | 67 | 172 | 0.0 | 0.0 | 0.03 | 0.03 | 0.03 | 96 | 1018.0 |
| 20260901061317 | 67 | 172 | 0.0 | 0.0 | 0.02 | 0.02 | 0.02 | 95 | 1018.0 |
| 20260901060333 | 67 | 172 | 0.0 | 0.0 | 0.02 | 0.02 | 0.02 | 95 | 1018.1 |
| 20260901055321 | 67 | 172 | 0.0 | 0.0 | 0.01 | 0.01 | 0.01 | 95 | 1018.2 |
| 20260901054331 | 67 | 172 | 0.0 | 0.0 | 0.00 | 0.00 | 0.00 | 95 | 1018.2 |
| 20260901053321 | 67 | 172 | 0.0 | 0.0 | 0.00 | 0.00 | 0.00 | 95 | 1018.2 |
| 20260901052329 | 67 | 172 | 0.0 | 0.0 | 0.00 | 0.00 | 0.00 | 95 | 1018.2 |
| 20260901051318 | 67 | 172 | 0.0 | 0.0 | 0.00 | 0.00 | 0.00 | 95 | 1018.4 |
| 20260901050328 | 67 | 172 | 0.0 | 0.0 | 0.00 | 0.00 | 0.00 | 95 | 1018.4 |
| 20260901045317 | 67 | 172 | 0.0 | 0.0 | 0.00 | 0.00 | 0.00 | 94 | 1018.5 |
| 20260901044355 | 67 | 172 | 0.0 | 0.0 | 0.00 | 0.00 | 0.00 | 94 | 1018.5 |
| 20260901043342 | 67 | 172 | 0.0 | 0.0 | 0.00 | 0.00 | 0.00 | 94 | 1018.5 |
| 20260901042336 | 67 | 172 | 0.0 | 0.0 | 0.00 | 0.00 | 0.00 | 94 | 1018.6 |
| 20260901041328 | 67 | 172 | 0.0 | 0.0 | 0.00 | 0.00 | 0.00 | 94 | 1018.7 |
| 20260901040338 | 67 | 172 | 0.0 | 0.0 | 0.00 | 0.00 | 0.00 | 94 | 1018.7 |
| 20260901035320 | 67 | 172 | 0.0 | 0.0 | 0.00 | 0.00 | 0.00 | 94 | 1018.6 |
| 20260901034331 | 67 | 172 | 0.0 | 0.0 | 0.00 | 0.00 | 0.00 | 94 | 1018.7 |
| 20260901033318 | 67 | 172 | 0.0 | 0.0 | 0.00 | 0.00 | 0.00 | 93 | 1018.7 |
| 20260901032333 | 67 | 172 | 0.0 | 0.0 | 0.00 | 0.00 | 0.00 | 93 | 1018.8 |
| 20260901031328 | 67 | 172 | 0.0 | 0.0 | 0.00 | 0.00 | 0.00 | 93 | 1019.0 |
| 20260901030316 | 67 | 172 | 0.0 | 0.0 | 0.00 | 0.00 | 0.00 | 93 | 1019.2 |
| 20260901025326 | 67 | 172 | 0.0 | 0.0 | 0.00 | 0.01 | 0.00 | 93 | 1019.3 |
| 20260901024317 | 68 | 172 | 0.0 | 0.0 | 0.00 | 0.01 | 0.00 | 93 | 1019.3 |
| 20260901023330 | 68 | 172 | 0.0 | 0.0 | 0.00 | 0.01 | 0.00 | 93 | 1019.2 |
| 20260901022320 | 68 | 172 | 0.0 | 0.0 | 0.00 | 0.01 | 0.00 | 92 | 1019.1 |
| 20260901021328 | 68 | 172 | 0.0 | 0.0 | 0.00 | 0.01 | 0.00 | 92 | 1019.2 |
| 20260901020317 | 68 | 172 | 0.0 | 0.0 | 0.00 | 0.01 | 0.00 | 92 | 1019.2 |
| 20260901015334 | 68 | 172 | 0.0 | 0.0 | 0.00 | 0.01 | 0.00 | 92 | 1019.3 |
| 20260901014322 | 68 | 172 | 0.0 | 0.0 | 0.00 | 0.01 | 0.00 | 91 | 1019.4 |
| 20260901013330 | 68 | 172 | 0.0 | 0.0 | 0.00 | 0.01 | 0.00 | 91 | 1019.4 |
| 20260901012347 | 68 | 172 | 0.0 | 0.0 | 0.00 | 0.01 | 0.00 | 90 | 1019.4 |
| 20260901011315 | 68 | 172 | 0.0 | 0.0 | 0.00 | 0.01 | 0.00 | 90 | 1019.6 |
| 20260901010349 | 68 | 172 | 0.0 | 0.0 | 0.00 | 0.01 | 0.00 | 89 | 1019.4 |
| 20260901005347 | 68 | 172 | 0.0 | 0.0 | 0.00 | 0.01 | 0.00 | 89 | 1019.5 |
| 20260901004314 | 68 | 172 | 0.0 | 0.0 | 0.00 | 0.01 | 0.00 | 89 | 1019.2 |
| 20260901003321 | 68 | 172 | 0.0 | 0.0 | 0.00 | 0.01 | 0.00 | 89 | 1019.2 |
| 20260901002329 | 68 | 172 | 0.0 | 0.0 | 0.00 | 0.01 | 0.00 | 89 | 1019.3 |
| 20260901001318 | 68 | 172 | 0.0 | 0.0 | 0.00 | 0.01 | 0.00 | 89 | 1019.2 |
| 20260901000325 | 68 | 172 | 0.0 | 0.0 | 0.00 | 0.01 | 0.00 | 88 | 1019.3 |
| 20260831235315 | 68 | 172 | 0.0 | 0.0 | 0.00 | 0.01 | 0.00 | 88 | 1019.2 |
| 20260831234334 | 68 | 172 | 0.0 | 0.0 | 0.00 | 0.01 | 0.00 | 88 | 1019.3 |
| 20260831233345 | 69 | 172 | 0.0 | 0.0 | 0.00 | 0.01 | 0.00 | 87 | 1019.4 |
| 20260831232313 | 69 | 172 | 0.0 | 0.0 | 0.00 | 0.01 | 0.00 | 87 | 1019.5 |
| 20260831231322 | 69 | 172 | 0.0 | 0.0 | 0.00 | 0.01 | 0.00 | 87 | 1019.6 |
| 20260831230358 | 69 | 172 | 0.0 | 0.0 | 0.00 | 0.01 | 0.00 | 87 | 1019.7 |
| 20260831225347 | 69 | 172 | 0.0 | 0.0 | 0.00 | 0.01 | 0.00 | 86 | 1019.7 |
| 20260831224315 | 70 | 172 | 0.0 | 0.0 | 0.00 | 0.01 | 0.00 | 86 | 1019.6 |
| 20260831223331 | 70 | 172 | 0.0 | 0.0 | 0.00 | 0.01 | 0.00 | 85 | 1019.8 |
| 20260831222319 | 70 | 172 | 0.0 | 0.0 | 0.00 | 0.01 | 0.00 | 86 | 1019.6 |
| 20260831221332 | 70 | 172 | 0.0 | 0.0 | 0.00 | 0.01 | 0.00 | 86 | 1019.8 |
| 20260831220322 | 70 | 172 | 0.0 | 0.0 | 0.00 | 0.01 | 0.00 | 85 | 1019.5 |
| 20260831215333 | 70 | 172 | 0.0 | 0.0 | 0.00 | 0.01 | 0.00 | 85 | 1019.6 |
| 20260831214323 | 71 | 172 | 0.0 | 0.0 | 0.00 | 0.01 | 0.00 | 85 | 1019.6 |
| 20260831213333 | 71 | 172 | 0.0 | 0.0 | 0.00 | 0.01 | 0.00 | 83 | 1019.6 |
| 20260831212320 | 71 | 172 | 0.0 | 0.0 | 0.00 | 0.01 | 0.00 | 83 | 1019.6 |
| 20260831211315 | 71 | 172 | 0.0 | 0.0 | 0.00 | 0.01 | 0.00 | 82 | 1019.5 |
| 20260831210323 | 72 | 172 | 0.0 | 0.0 | 0.00 | 0.01 | 0.00 | 81 | 1019.6 |
| 20260831205340 | 72 | 172 | 0.0 | 0.0 | 0.00 | 0.01 | 0.00 | 79 | 1019.6 |
| 20260831204328 | 72 | 172 | 0.0 | 0.0 | 0.00 | 0.01 | 0.00 | 78 | 1019.6 |
| 20260831203317 | 73 | 172 | 0.0 | 0.0 | 0.00 | 0.01 | 0.00 | 76 | 1019.5 |
| 20260831202325 | 73 | 172 | 0.0 | 0.0 | 0.00 | 0.01 | 0.00 | 73 | 1019.5 |
| 20260831201334 | 73 | 172 | 0.0 | 0.0 | 0.00 | 0.01 | 0.00 | 72 | 1019.6 |
| 20260831200323 | 74 | 172 | 0.0 | 0.0 | 0.00 | 0.01 | 0.00 | 71 | 1019.8 |
| 20260831195311 | 76 | 172 | 0.0 | 0.0 | 0.00 | 0.01 | 0.00 | 65 | 1019.8 |
| 20260831194320 | 76 | 172 | 0.0 | 0.0 | 0.00 | 0.01 | 0.00 | 67 | 1020.1 |
| 20260831193335 | 75 | 172 | 0.0 | 0.0 | 0.00 | 0.01 | 0.00 | 67 | 1020.2 |
| 20260831192327 | 76 | 172 | 0.0 | 0.0 | 0.00 | 0.01 | 0.00 | 67 | 1020.4 |
| 20260831191315 | 75 | 172 | 0.0 | 0.0 | 0.00 | 0.01 | 0.00 | 67 | 1020.3 |
| 20260831190332 | 75 | 172 | 0.0 | 0.0 | 0.00 | 0.01 | 0.00 | 69 | 1020.5 |
| 20260831185327 | 75 | 172 | 0.0 | 0.0 | 0.00 | 0.01 | 0.00 | 66 | 1020.6 |
| 20260831184317 | 75 | 171 | 0.0 | 0.0 | 0.00 | 0.01 | 0.00 | 68 | 1020.6 |
| 20260831183327 | 76 | 171 | 0.0 | 1.7 | 0.00 | 0.01 | 0.00 | 67 | 1020.4 |
| 20260831182337 | 76 | 174 | 0.0 | 0.0 | 0.00 | 0.01 | 0.00 | 68 | 1020.5 |
| 20260831181345 | 75 | 172 | 0.0 | 0.0 | 0.00 | 0.01 | 0.00 | 71 | 1020.6 |
| 20260831180313 | 75 | 172 | 0.0 | 0.0 | 0.00 | 0.01 | 0.00 | 73 | 1020.7 |
| 20260831175322 | 75 | 172 | 0.0 | 0.0 | 0.00 | 0.01 | 0.00 | 75 | 1020.9 |
| 20260831174312 | 76 | 172 | 0.0 | 0.0 | 0.00 | 0.01 | 0.00 | 75 | 1020.9 |
| 20260831173324 | 77 | 172 | 0.0 | 0.9 | 0.00 | 0.01 | 0.00 | 70 | 1020.8 |
| 20260831172340 | 77 | 220 | 0.0 | 0.9 | 0.00 | 0.01 | 0.00 | 69 | 1020.7 |
| 20260831171329 | 77 | 232 | 0.0 | 0.9 | 0.00 | 0.01 | 0.00 | 70 | 1020.7 |
| 20260831170315 | 76 | 232 | 0.0 | 0.9 | 0.00 | 0.01 | 0.00 | 69 | 1020.8 |
| 20260831165351 | 76 | 235 | 0.0 | 1.7 | 0.00 | 0.01 | 0.00 | 70 | 1020.8 |
| 20260831164319 | 76 | 214 | 0.0 | 0.9 | 0.00 | 0.01 | 0.00 | 69 | 1020.9 |
| 20260831163338 | 76 | 229 | 0.0 | 0.9 | 0.00 | 0.01 | 0.00 | 71 | 1021.0 |
| 20260831162324 | 74 | 240 | 0.0 | 0.9 | 0.00 | 0.01 | 0.00 | 71 | 1021.1 |
| 20260831161314 | 74 | 241 | 0.0 | 0.9 | 0.00 | 0.01 | 0.00 | 69 | 1021.1 |
| 20260831160322 | 73 | 240 | 0.0 | 1.7 | 0.00 | 0.01 | 0.00 | 72 | 1021.2 |
| 20260831155330 | 73 | 236 | 0.0 | 0.9 | 0.00 | 0.01 | 0.00 | 75 | 1021.3 |
| 20260831154346 | 73 | 233 | 0.0 | 0.9 | 0.00 | 0.01 | 0.00 | 75 | 1021.0 |
| 20260831153334 | 73 | 233 | 0.0 | 0.9 | 0.00 | 0.01 | 0.00 | 75 | 1021.2 |
| 20260831152323 | 73 | 233 | 0.0 | 1.7 | 0.00 | 0.01 | 0.00 | 73 | 1021.2 |
| 20260831151313 | 72 | 237 | 0.0 | 2.6 | 0.00 | 0.01 | 0.00 | 76 | 1021.2 |
| 20260831150322 | 72 | 244 | 0.0 | 0.9 | 0.00 | 0.01 | 0.00 | 80 | 1021.1 |
| 20260831145311 | 71 | 246 | 0.0 | 0.9 | 0.00 | 0.01 | 0.00 | 86 | 1021.2 |
| 20260831144330 | 70 | 244 | 0.0 | 0.9 | 0.00 | 0.01 | 0.00 | 85 | 1021.1 |
| 20260831143323 | 70 | 244 | 0.0 | 0.9 | 0.00 | 0.01 | 0.00 | 86 | 1021.3 |
| 20260831142354 | 69 | 244 | 0.0 | 0.9 | 0.00 | 0.01 | 0.00 | 88 | 1021.3 |
| 20260831141327 | 69 | 244 | 0.0 | 0.9 | 0.00 | 0.01 | 0.00 | 89 | 1021.1 |
| 20260831140318 | 68 | 244 | 0.0 | 0.9 | 0.00 | 0.01 | 0.00 | 89 | 1021.0 |
| 20260831135326 | 67 | 245 | 0.0 | 0.9 | 0.00 | 0.01 | 0.00 | 91 | 1021.0 |
| 20260831134313 | 67 | 246 | 0.0 | 0.0 | 0.00 | 0.01 | 0.00 | 94 | 1021.0 |
| 20260831133330 | 67 | 246 | 0.0 | 0.9 | 0.00 | 0.01 | 0.00 | 93 | 1021.1 |
| 20260831132318 | 66 | 246 | 0.0 | 0.9 | 0.00 | 0.01 | 0.00 | 94 | 1021.0 |
| 20260831131336 | 66 | 245 | 0.0 | 0.9 | 0.00 | 0.01 | 0.00 | 96 | 1021.0 |
| 20260831130330 | 65 | 245 | 0.0 | 0.0 | 0.00 | 0.01 | 0.00 | 96 | 1021.0 |
| 20260831125323 | 65 | 245 | 0.0 | 0.0 | 0.00 | 0.01 | 0.00 | 96 | 1021.1 |
| 20260831124345 | 64 | 245 | 0.0 | 0.9 | 0.00 | 0.01 | 0.00 | 97 | 1020.9 |
| 20260831123336 | 64 | 247 | 0.0 | 0.9 | 0.00 | 0.01 | 0.00 | 97 | 1020.9 |
| 20260831122329 | 63 | 245 | 0.0 | 0.9 | 0.00 | 0.01 | 0.00 | 97 | 1020.9 |
| 20260831121323 | 63 | 245 | 0.0 | 0.0 | 0.00 | 0.01 | 0.00 | 97 | 1020.9 |
| 20260831120332 | 63 | 245 | 0.0 | 0.9 | 0.00 | 0.01 | 0.00 | 97 | 1020.7 |
| 20260831115327 | 62 | 246 | 0.0 | 0.0 | 0.00 | 0.01 | 0.00 | 97 | 1020.9 |
| 20260831114346 | 62 | 246 | 0.0 | 0.9 | 0.00 | 0.01 | 0.00 | 97 | 1021.0 |
| 20260831113318 | 62 | 246 | 0.0 | 0.0 | 0.00 | 0.01 | 0.00 | 97 | 1020.8 |
| 20260831112358 | 62 | 246 | 0.0 | 0.0 | 0.00 | 0.01 | 0.00 | 97 | 1020.8 |
| 20260831111328 | 62 | 247 | 0.0 | 0.0 | 0.00 | 0.01 | 0.00 | 97 | 1020.5 |
| 20260831110350 | 62 | 246 | 0.0 | 0.0 | 0.00 | 0.01 | 0.00 | 97 | 1020.3 |
| 20260831105318 | 62 | 246 | 0.0 | 0.0 | 0.00 | 0.01 | 0.00 | 97 | 1019.9 |
| 20260831104311 | 62 | 246 | 0.0 | 0.0 | 0.00 | 0.01 | 0.00 | 97 | 1020.1 |
| 20260831103333 | 62 | 246 | 0.0 | 0.0 | 0.00 | 0.01 | 0.00 | 97 | 1020.0 |
| 20260831102326 | 62 | 246 | 0.0 | 0.0 | 0.00 | 0.01 | 0.00 | 97 | 1019.9 |
| 20260831101325 | 62 | 246 | 0.0 | 0.0 | 0.00 | 0.01 | 0.00 | 97 | 1019.8 |
| 20260831100317 | 62 | 246 | 0.0 | 0.0 | 0.00 | 0.01 | 0.00 | 97 | 1019.8 |
| 20260831095312 | 62 | 246 | 0.0 | 0.0 | 0.00 | 0.01 | 0.00 | 97 | 1019.8 |
| 20260831094330 | 62 | 247 | 0.0 | 0.0 | 0.00 | 0.01 | 0.00 | 97 | 1019.9 |
| 20260831093350 | 62 | 248 | 0.0 | 0.0 | 0.00 | 0.01 | 0.00 | 97 | 1019.8 |
| 20260831092320 | 62 | 248 | 0.0 | 0.0 | 0.00 | 0.01 | 0.00 | 97 | 1019.8 |
| 20260831091335 | 62 | 248 | 0.0 | 0.0 | 0.00 | 0.01 | 0.00 | 97 | 1019.8 |
| 20260831090324 | 62 | 248 | 0.0 | 0.0 | 0.00 | 0.01 | 0.00 | 96 | 1019.8 |
| 20260831085345 | 62 | 248 | 0.0 | 0.0 | 0.00 | 0.01 | 0.00 | 96 | 1019.6 |
| 20260831084318 | 62 | 248 | 0.0 | 0.0 | 0.00 | 0.01 | 0.00 | 96 | 1019.6 |
| 20260831083335 | 62 | 248 | 0.0 | 0.0 | 0.00 | 0.01 | 0.00 | 96 | 1019.7 |
| 20260831082354 | 62 | 248 | 0.0 | 0.0 | 0.00 | 0.01 | 0.00 | 96 | 1019.7 |
| 20260831081328 | 62 | 248 | 0.0 | 0.0 | 0.00 | 0.01 | 0.00 | 96 | 1019.5 |
| 20260831080349 | 62 | 248 | 0.0 | 0.0 | 0.00 | 0.01 | 0.00 | 96 | 1019.6 |